Montego Bay, Jamaica

2:16 PM EST on December 09, 2016 (GMT -0500)
Sangster International

Weather History for MKJS - December, 2012

Change the Weather History Date:

Friday, December 7, 2012

  Actual Average Record
Temperature  
Mean Temperature 79 °F -  
Max Temperature 85 °F 82 °F 89 °F (2015)
Min Temperature 73 °F 74 °F 71 °F (1996)
Cooling Degree Days 14    
Growing Degree Days 29 (Base 50)    
Moisture  
Dew Point 71 °F    
Average Humidity 81    
Maximum Humidity 94    
Minimum Humidity 66    
Precipitation  
Precipitation 0.08 in - - ()
Sea Level Pressure  
Sea Level Pressure 29.86 in    
Wind  
Wind Speed 5 mph ()    
Max Wind Speed 13 mph    
Max Gust Speed -    
Visibility 7.7 miles    
Events Rain    
Averages and records for this station are not official NWS values.
T = Trace of Precipitation, MM = Missing Value Source: Averaged Metar Reports

Daily Weather History Graph

Daily Weather History Graph

Search for Another Location

Airport or City:

Trip Planner

Search our weather history database for the weather conditions in past years. The results will help you decide how hot, cold, wet, or windy it might be!

Date:

Astronomy

Dec. 07, 2012 Rise Set
Actual Time 6:31 AM EST 5:35 PM EST
Civil Twilight 6:07 AM EST 5:58 PM EST
Nautical Twilight 5:40 AM EST 6:25 PM EST
Astronomical Twilight 5:14 AM EST 6:52 PM EST
Moon 12:34 AM EST (12/7) 12:50 PM EST (12/7)
Length of Visible Light 11h 50m
Length of Day
11h 03m
Last Quarter, 39% of the Moon is Illuminated
Dec 7
Last Quarter
Dec 13
New
Dec 20
First Quarter
Dec 28
Full
Jan 4
Last Quarter

Hourly Weather History & Observations

Time (EST) Temp. Heat Index Dew Point Humidity Pressure Visibility Wind Dir Wind Speed Gust Speed Precip Events Conditions
12:00 AM 78.8 °F - 68.0 °F 69% 29.86 in 6.2 mi SSE 6.9 mph - N/A   Scattered Clouds
1:00 AM 77 °F - 68 °F 66% 29.86 in 12 mi East 2.3 mph - -   Partly Cloudy
1:00 AM 77.0 °F - 68.0 °F 74% 29.86 in 6.2 mi East 2.3 mph - N/A   Scattered Clouds
2:00 AM 77.0 °F - 68.0 °F 74% 29.83 in 6.2 mi SE 2.3 mph - N/A   Scattered Clouds
3:00 AM 75.2 °F - 68.0 °F 78% 29.83 in 6.2 mi East 4.6 mph - N/A   Partly Cloudy
4:00 AM 77.0 °F - 71.6 °F 83% 29.83 in 6.2 mi ESE 5.8 mph - N/A   Partly Cloudy
5:00 AM 77.0 °F - 68.0 °F 74% 29.83 in 6.2 mi SSE 5.8 mph - N/A   Partly Cloudy
6:00 AM 75.2 °F - 69.8 °F 83% 29.86 in 6.2 mi SE 3.5 mph - N/A   Scattered Clouds
7:00 AM 76 °F - 71 °F 79% 29.87 in 14 mi SSE 3.5 mph - -   Haze
7:00 AM 75.2 °F - 71.6 °F 89% 29.86 in 6.2 mi SSE 3.5 mph - N/A   Scattered Clouds
8:00 AM 77.0 °F - 71.6 °F 83% 29.89 in 6.2 mi ENE 3.5 mph - N/A   Partly Cloudy
9:00 AM 78.8 °F - 71.6 °F 78% 29.89 in 6.2 mi East 2.3 mph - N/A   Mostly Cloudy
10:00 AM 80 °F - 72 °F 72% 29.92 in 14 mi East 4.6 mph - -   Haze
10:00 AM 78.8 °F - 73.4 °F 83% 29.92 in 6.2 mi East 4.6 mph - N/A   Mostly Cloudy
11:00 AM 80.6 °F 85.4 °F 73.4 °F 79% 29.89 in 6.2 mi NNE 9.2 mph - N/A   Mostly Cloudy
12:00 PM 82.4 °F 89.5 °F 75.2 °F 79% 29.86 in 6.2 mi NE 10.4 mph - N/A   Mostly Cloudy
1:00 PM 81 °F - 74 °F 74% 29.84 in 16 mi ENE 11.5 mph - - Rain Light Rain Showers
1:00 PM 80.6 °F 85.4 °F 73.4 °F 79% 29.83 in 6.2 mi ENE 11.5 mph - N/A Rain Light Rain Showers
2:00 PM 80.6 °F 86.2 °F 75.2 °F 84% 29.80 in 6.2 mi ENE 12.7 mph - N/A Rain Light Rain Showers
3:00 PM 75.2 °F - 71.6 °F 89% 29.83 in 6.2 mi East 11.5 mph - N/A Rain Light Rain
4:00 PM 76 °F - 72 °F 83% 29.84 in 12 mi SSE 3.5 mph - - Rain Light Rain
4:00 PM 75.2 °F - 71.6 °F 89% 29.83 in 6.2 mi SSE 3.5 mph - N/A Rain Light Rain
5:00 PM 77.0 °F - 71.6 °F 83% 29.83 in 6.2 mi East 8.1 mph - N/A   Mostly Cloudy
6:00 PM 75.2 °F - 71.6 °F 89% 29.86 in 6.2 mi SE 2.3 mph - N/A   Mostly Cloudy
7:00 PM 75 °F - 72 °F 87% 29.88 in 9 mi East 8.1 mph - - Rain Rain
7:00 PM 75.2 °F - 71.6 °F 89% 29.86 in 6.2 mi East 8.1 mph - N/A Rain Rain
8:00 PM 75.2 °F - 73.4 °F 94% 29.89 in 6.2 mi SE 3.5 mph - N/A   Mostly Cloudy
9:00 PM 73.4 °F - 69.8 °F 88% 29.89 in 6.2 mi East 3.5 mph - N/A   Scattered Clouds
10:00 PM 75 °F - 70 °F 81% 29.90 in 12 mi ESE 2.3 mph - -   Partly Cloudy
10:00 PM 75.2 °F - 69.8 °F 83% 29.89 in 6.2 mi ESE 2.3 mph - N/A   Mostly Cloudy
11:00 PM 75.2 °F - 69.8 °F 83% 29.89 in 6.2 mi ESE 3.5 mph - N/A   Mostly Cloudy